Location: Brantley
(31.5822°N, 86.2569°W)
Time: 02:02:54
(UTC+00:00)

Transit 2A Rocket - Visible Passes

Search period start: 07 February 2026 00:00
Search period end: 17 February 2026 00:00
Orbit: 581 x 902 km, 66.7° (Epoch: 6 February)

Date Brightness Start Highest point End Pass type
(mag) Time Alt. Az. Time Alt. Az. Time Alt. Az.
7 Feb 5.8 00:15:56 10° SW 00:21:45 64° WNW 00:27:46 10° NNE visible
7 Feb 7.1 10:55:36 10° SSW 10:55:36 10° SSW 10:55:40 10° SSW visible
8 Feb 7.8 01:15:18 10° W 01:19:06 17° NW 01:22:57 10° NNW visible
9 Feb 7.1 00:28:00 10° WSW 00:33:07 30° WNW 00:38:20 10° N visible
9 Feb 6.2 23:41:33 10° SW 23:47:17 53° WNW 23:53:12 10° NNE visible
11 Feb 7.9 00:41:34 10° W 00:44:45 15° NW 00:47:57 10° NNW visible
11 Feb 7.4 23:53:52 10° WSW 23:58:42 25° NW 00:03:38 10° N visible
14 Feb 7.9 00:08:05 10° WNW 00:10:24 12° NW 00:12:44 10° NNW visible
